XAX601 UAAA-WMKK

Flight info

Callsign XAX601
Flight time N/A
Altitude 37000
Route PIGAL1A PIGAL M610 RULAD/K0876S1130 A460 XKC L888 SANLI/K0876S1160 L888 NIVUX/K0885S1130 L888 URGAV/K0876S1190 L888 BIDRU A581 SAGAG/N0478F380 B218 LPB B346 BKK/N0475F390 M904 PIDEL Y11 PASVA Y514 EMPUR/N0473F400 DCT RUPOS G466 PULIP PULIP1G
Aircraft A333/H-SDE3GHIJ2J3J5M1RVWXY/LB2D1

Departure

Time 2026-04-29 15:18
Airport Almaty International Airport (UAAA)

Arrival

Time N/A
Airport Kuala Lumpur International Airport (WMKK)
Time Latitude Longitude Altitude Speed Heading
2026-04-29 15:18 43.38582 77.10628 3997 ft 258 kts 42°
2026-04-29 15:18 43.40154 77.11791 4658 ft 261 kts 13°
2026-04-29 15:18 43.41961 77.11761 5264 ft 266 kts 344°
2026-04-29 15:18 43.43579 77.10501 5858 ft 270 kts 315°
2026-04-29 15:19 43.44569 77.08324 6473 ft 273 kts 287°
2026-04-29 15:19 43.44698 77.05717 7078 ft 276 kts 258°
2026-04-29 15:19 43.43932 77.03322 7647 ft 279 kts 230°
2026-04-29 15:19 43.42432 77.01655 8270 ft 279 kts 205°
2026-04-29 15:20 43.40673 77.00482 8897 ft 281 kts 205°
2026-04-29 15:20 43.38923 76.99310 9531 ft 283 kts 204°
2026-04-29 15:20 43.37139 76.98116 10082 ft 287 kts 205°
2026-04-29 15:20 43.35302 76.96889 10081 ft 289 kts 205°
2026-04-29 15:21 43.33469 76.95664 10156 ft 297 kts 205°
2026-04-29 15:21 43.31633 76.94403 10078 ft 290 kts 211°
2026-04-29 15:21 43.30154 76.92454 10182 ft 305 kts 236°
2026-04-29 15:21 43.29375 76.89761 10158 ft 298 kts 262°
2026-04-29 15:22 43.29552 76.86874 10372 ft 313 kts 288°
2026-04-29 15:22 43.30642 76.84212 10589 ft 328 kts 312°
2026-04-29 15:22 43.32472 76.82266 10776 ft 344 kts 334°
2026-04-29 15:22 43.34812 76.81349 10909 ft 359 kts 356°
2026-04-29 15:23 43.37342 76.81635 11309 ft 367 kts 12°
2026-04-29 15:23 43.39865 76.82299 11936 ft 369 kts 12°
2026-04-29 15:23 43.42339 76.83342 12550 ft 370 kts 27°
2026-04-29 15:23 43.44558 76.85130 12994 ft 373 kts 27°
2026-04-29 15:24 43.46905 76.86709 13499 ft 377 kts 26°
2026-04-29 15:24 43.49195 76.88496 14032 ft 380 kts 37°
2026-04-29 15:24 43.50980 76.91204 14621 ft 383 kts 57°
2026-04-29 15:24 43.52145 76.93978 14974 ft 387 kts 57°
2026-04-29 15:25 43.53636 76.97127 15443 ft 391 kts 56°
2026-04-29 15:25 43.55143 77.00246 16021 ft 391 kts 55°
2026-04-29 15:25 43.56493 77.03541 16541 ft 395 kts 68°
2026-04-29 15:25 43.57048 77.07252 16934 ft 400 kts 85°
2026-04-29 15:26 43.56778 77.11098 17409 ft 407 kts 103°
2026-04-29 15:26 43.55715 77.14742 17830 ft 411 kts 111°
2026-04-29 15:26 43.54739 77.18449 18299 ft 413 kts 108°
2026-04-29 15:26 43.53792 77.22234 18706 ft 417 kts 107°
2026-04-29 15:27 43.52845 77.26046 19125 ft 420 kts 107°
2026-04-29 15:27 43.51899 77.29854 19580 ft 422 kts 107°
2026-04-29 15:27 43.50940 77.33711 19995 ft 426 kts 107°
2026-04-29 15:27 43.49971 77.37601 20414 ft 428 kts 107°
2026-04-29 15:28 43.49000 77.41482 20825 ft 431 kts 107°
2026-04-29 15:28 43.48355 77.44069 21101 ft 433 kts 107°
2026-04-29 15:28 43.47260 77.49422 21630 ft 434 kts 95°
2026-04-29 15:28 43.47364 77.53574 21975 ft 433 kts 78°
2026-04-29 15:29 43.48258 77.57524 22346 ft 431 kts 62°
2026-04-29 15:29 43.51487 77.64442 23075 ft 434 kts 56°
2026-04-29 15:30 43.54669 77.71671 23749 ft 440 kts 57°
2026-04-29 15:30 43.56263 77.75315 24071 ft 443 kts 57°
2026-04-29 15:30 43.57491 77.79237 24341 ft 451 kts 73°
2026-04-29 15:30 43.57870 77.83566 24659 ft 458 kts 89°
2026-04-29 15:31 43.57758 77.87947 25024 ft 459 kts 90°
2026-04-29 15:31 43.57676 77.92395 25292 ft 463 kts 90°
2026-04-29 15:31 43.57601 77.96864 25610 ft 465 kts 90°
2026-04-29 15:31 43.57529 78.01344 25956 ft 467 kts 90°
2026-04-29 15:32 43.57456 78.05855 26261 ft 470 kts 90°
2026-04-29 15:32 43.57382 78.10367 26544 ft 473 kts 90°
2026-04-29 15:32 43.57306 78.14927 26840 ft 475 kts 90°
2026-04-29 15:32 43.57228 78.19488 27127 ft 478 kts 89°
2026-04-29 15:33 43.57147 78.24083 27442 ft 480 kts 90°
2026-04-29 15:33 43.57064 78.28684 27728 ft 482 kts 89°
2026-04-29 15:33 43.56979 78.33378 27999 ft 485 kts 89°
2026-04-29 15:33 43.56892 78.38022 28250 ft 488 kts 89°
2026-04-29 15:34 43.56804 78.42685 28507 ft 490 kts 89°
2026-04-29 15:34 43.56712 78.47389 28784 ft 492 kts 89°
2026-04-29 15:34 43.56616 78.52155 29053 ft 494 kts 89°
2026-04-29 15:34 43.56521 78.56886 29285 ft 496 kts 89°
2026-04-29 15:35 43.56421 78.61668 29513 ft 498 kts 89°
2026-04-29 15:35 43.56319 78.66473 29857 ft 497 kts 90°
2026-04-29 15:35 43.56217 78.71219 30177 ft 497 kts 90°
2026-04-29 15:35 43.56110 78.76019 30546 ft 496 kts 90°
2026-04-29 15:36 43.56003 78.80769 30876 ft 495 kts 90°
2026-04-29 15:36 43.55895 78.85527 31173 ft 495 kts 90°
2026-04-29 15:36 43.55785 78.90270 31485 ft 495 kts 90°
2026-04-29 15:36 43.55674 78.94972 31753 ft 496 kts 90°
2026-04-29 15:37 43.55558 78.99770 32068 ft 495 kts 90°
2026-04-29 15:37 43.55442 79.04515 32331 ft 495 kts 90°
2026-04-29 15:37 43.55323 79.09256 32605 ft 495 kts 90°
2026-04-29 15:37 43.55203 79.14024 32840 ft 496 kts 90°
2026-04-29 15:38 43.55079 79.18825 33144 ft 495 kts 90°
2026-04-29 15:38 43.54955 79.23570 33393 ft 495 kts 90°
2026-04-29 15:38 43.54942 79.28330 33627 ft 494 kts 89°
2026-04-29 15:38 43.54748 79.33048 33816 ft 495 kts 91°
2026-04-29 15:39 43.54584 79.37854 34078 ft 495 kts 90°
2026-04-29 15:39 43.54442 79.42577 34256 ft 495 kts 90°
2026-04-29 15:39 43.54303 79.47357 34478 ft 494 kts 90°
2026-04-29 15:39 43.54166 79.52113 34666 ft 494 kts 90°
2026-04-29 15:40 43.54026 79.56887 34840 ft 494 kts 90°
2026-04-29 15:40 43.53888 79.61591 35032 ft 494 kts 90°
2026-04-29 15:40 43.53744 79.66393 35207 ft 494 kts 90°
2026-04-29 15:40 43.53601 79.71124 35351 ft 494 kts 90°
2026-04-29 15:41 43.53454 79.75888 35550 ft 493 kts 90°
2026-04-29 15:41 43.53305 79.80645 35693 ft 493 kts 90°
2026-04-29 15:41 43.53158 79.85326 35857 ft 493 kts 90°
2026-04-29 15:41 43.53007 79.90060 36031 ft 492 kts 90°
2026-04-29 15:42 43.52854 79.94762 36184 ft 493 kts 90°
2026-04-29 15:42 43.52699 79.99527 36359 ft 492 kts 90°
2026-04-29 15:42 43.52542 80.04230 36532 ft 492 kts 90°
2026-04-29 15:42 43.52385 80.08921 36673 ft 492 kts 90°
2026-04-29 15:43 43.52224 80.13670 36799 ft 492 kts 90°
2026-04-29 15:43 43.52061 80.18388 36934 ft 492 kts 90°
2026-04-29 15:43 43.51897 80.23110 37085 ft 491 kts 90°
2026-04-29 15:44 43.51565 80.32470 37176 ft 490 kts 90°
2026-04-29 15:44 43.51222 80.41920 37164 ft 496 kts 90°
2026-04-29 15:45 43.50867 80.51498 37176 ft 500 kts 90°
2026-04-29 15:45 43.50501 80.61053 37188 ft 504 kts 91°
2026-04-29 15:46 43.49044 80.70519 37215 ft 508 kts 110°
2026-04-29 15:46 43.45693 80.79064 37216 ft 509 kts 127°
2026-04-29 15:47 43.40707 80.85908 37242 ft 505 kts 146°
2026-04-29 15:47 43.35277 80.91991 37263 ft 503 kts 139°
2026-04-29 15:48 43.30065 80.98489 37279 ft 504 kts 139°
2026-04-29 15:48 43.24885 81.04984 37297 ft 504 kts 139°
2026-04-29 15:49 43.19731 81.11434 37288 ft 504 kts 139°
2026-04-29 15:49 43.14539 81.17915 37292 ft 503 kts 139°
2026-04-29 15:50 43.09350 81.24377 37308 ft 503 kts 139°
2026-04-29 15:50 43.04193 81.30784 37299 ft 503 kts 139°
2026-04-29 15:51 42.98990 81.37234 37288 ft 502 kts 139°
2026-04-29 15:51 42.93813 81.43638 37296 ft 502 kts 139°
2026-04-29 15:52 42.88608 81.50056 37301 ft 503 kts 139°
2026-04-29 15:52 42.83432 81.56427 37313 ft 503 kts 139°
2026-04-29 15:53 42.78225 81.62820 37336 ft 503 kts 139°
2026-04-29 15:53 42.72993 81.69229 37331 ft 503 kts 140°
2026-04-29 15:54 42.67740 81.75562 37341 ft 501 kts 143°
2026-04-29 15:54 42.62294 81.81535 37331 ft 502 kts 143°
2026-04-29 15:55 42.56894 81.87505 37334 ft 503 kts 143°
2026-04-29 15:55 42.51431 81.93534 37321 ft 504 kts 143°
2026-04-29 15:56 42.45969 81.99550 37323 ft 504 kts 143°
2026-04-29 15:56 42.40508 82.05549 37306 ft 504 kts 143°
2026-04-29 15:57 42.35090 82.11488 37315 ft 504 kts 143°
2026-04-29 15:57 42.29615 82.17479 37298 ft 504 kts 144°
2026-04-29 15:58 42.24125 82.23470 37300 ft 507 kts 143°
2026-04-29 15:58 42.18639 82.29445 37266 ft 504 kts 144°
2026-04-29 15:59 42.13172 82.35387 37221 ft 506 kts 144°
2026-04-29 15:59 42.07681 82.41341 37195 ft 506 kts 144°
2026-04-29 16:00 42.02200 82.47270 37154 ft 505 kts 144°
2026-04-29 16:00 41.96690 82.53220 37151 ft 505 kts 144°
2026-04-29 16:01 41.91195 82.59135 37132 ft 505 kts 144°
2026-04-29 16:01 41.85675 82.65065 37124 ft 506 kts 144°
2026-04-29 16:02 41.80158 82.70983 37097 ft 505 kts 145°
2026-04-29 16:02 41.74661 82.76863 37080 ft 505 kts 145°
2026-04-29 16:03 41.69183 82.82726 37059 ft 505 kts 143°
2026-04-29 16:03 41.66703 82.86094 37054 ft 510 kts 131°
2026-04-29 16:03 41.64728 82.90080 37084 ft 514 kts 122°
2026-04-29 16:04 41.60945 82.98225 37053 ft 517 kts 124°
2026-04-29 16:04 41.57038 83.06318 37033 ft 515 kts 125°
2026-04-29 16:05 41.53148 83.14329 37025 ft 514 kts 125°
2026-04-29 16:05 41.49221 83.22396 37028 ft 514 kts 125°
2026-04-29 16:06 41.45333 83.30363 37022 ft 515 kts 125°
2026-04-29 16:06 41.41378 83.38444 37017 ft 516 kts 125°
2026-04-29 16:07 41.37462 83.46425 37013 ft 514 kts 125°
2026-04-29 16:07 41.33556 83.54366 37000 ft 514 kts 125°
2026-04-29 16:08 41.29619 83.62344 37000 ft 515 kts 125°
2026-04-29 16:08 41.25655 83.70359 36979 ft 514 kts 126°
2026-04-29 16:09 41.21704 83.78329 36971 ft 514 kts 126°
2026-04-29 16:09 41.17768 83.86247 36972 ft 514 kts 126°
2026-04-29 16:10 41.13810 83.94188 36966 ft 515 kts 126°
2026-04-29 16:10 41.09857 84.02099 36957 ft 516 kts 126°
2026-04-29 16:11 41.05868 84.10064 36953 ft 516 kts 126°
2026-04-29 16:11 41.01892 84.17980 36949 ft 516 kts 127°
2026-04-29 16:12 40.97924 84.25861 36949 ft 515 kts 127°
2026-04-29 16:12 40.93925 84.33780 36944 ft 515 kts 127°
2026-04-29 16:13 40.89939 84.41655 36948 ft 514 kts 127°
2026-04-29 16:13 40.85932 84.49550 36955 ft 516 kts 127°
2026-04-29 16:14 40.81925 84.57433 36958 ft 515 kts 127°
2026-04-29 16:14 40.79932 84.61346 37125 ft 515 kts 127°
2026-04-29 16:14 40.77927 84.65275 36919 ft 517 kts 128°
2026-04-29 16:15 40.73933 84.73090 36970 ft 512 kts 128°
2026-04-29 16:15 40.69936 84.80898 36956 ft 514 kts 128°
2026-04-29 16:16 40.65919 84.88718 36955 ft 515 kts 128°
2026-04-29 16:16 40.61866 84.96585 36958 ft 515 kts 128°
2026-04-29 16:17 40.57827 85.04413 36960 ft 515 kts 129°
2026-04-29 16:17 40.53798 85.12195 36959 ft 515 kts 129°
2026-04-29 16:18 40.49733 85.20032 36953 ft 516 kts 129°
2026-04-29 16:18 40.45697 85.27794 36947 ft 515 kts 129°
2026-04-29 16:19 40.41632 85.35590 36945 ft 516 kts 129°
2026-04-29 16:19 40.37542 85.43415 36955 ft 517 kts 129°
2026-04-29 16:20 40.33464 85.51200 36955 ft 516 kts 129°
2026-04-29 16:20 40.29383 85.58968 36961 ft 515 kts 129°
2026-04-29 16:21 40.25287 85.66743 36942 ft 516 kts 130°
2026-04-29 16:21 40.21216 85.74459 36931 ft 513 kts 130°
2026-04-29 16:22 40.17128 85.82180 36945 ft 516 kts 130°
2026-04-29 16:22 40.13023 85.89920 36941 ft 515 kts 130°
2026-04-29 16:23 40.08902 85.97666 36951 ft 516 kts 130°
2026-04-29 16:23 40.04787 86.05405 36957 ft 518 kts 130°
2026-04-29 16:24 40.00674 86.13121 36955 ft 518 kts 130°
2026-04-29 16:24 39.96526 86.20893 36950 ft 516 kts 130°
2026-04-29 16:25 39.92422 86.28554 36944 ft 516 kts 130°
2026-04-29 16:25 39.88307 86.36224 36941 ft 515 kts 130°
2026-04-29 16:26 39.84186 86.43881 36955 ft 517 kts 130°
2026-04-29 16:26 39.80033 86.51585 36956 ft 515 kts 130°
2026-04-29 16:27 39.75883 86.59260 36954 ft 515 kts 130°
2026-04-29 16:27 39.71752 86.66883 36949 ft 517 kts 131°
2026-04-29 16:28 39.67616 86.74496 36950 ft 513 kts 131°
2026-04-29 16:28 39.63499 86.82062 36950 ft 513 kts 131°
2026-04-29 16:29 39.59356 86.89653 36952 ft 512 kts 131°
2026-04-29 16:29 39.55237 86.97179 36957 ft 512 kts 131°
2026-04-29 16:30 39.51089 87.04744 36952 ft 509 kts 131°
2026-04-29 16:30 39.46969 87.12241 36962 ft 511 kts 131°
2026-04-29 16:31 39.42835 87.19742 36965 ft 508 kts 131°
2026-04-29 16:31 39.38696 87.27237 36959 ft 510 kts 132°
2026-04-29 16:32 39.34559 87.34705 36957 ft 510 kts 131°
2026-04-29 16:32 39.30406 87.42195 36955 ft 510 kts 131°
2026-04-29 16:33 39.24205 87.53342 36952 ft 507 kts 132°
2026-04-29 16:33 39.20049 87.60784 36951 ft 508 kts 131°
2026-04-29 16:34 39.15894 87.68211 36923 ft 509 kts 132°
2026-04-29 16:34 39.11757 87.75589 36928 ft 506 kts 133°
2026-04-29 16:35 39.07588 87.83006 36922 ft 508 kts 133°
2026-04-29 16:35 39.03416 87.90415 36930 ft 511 kts 133°
2026-04-29 16:36 38.99286 87.97728 36926 ft 511 kts 132°
2026-04-29 16:36 38.95108 88.05114 36990 ft 507 kts 133°
2026-04-29 16:37 38.90952 88.12437 37026 ft 508 kts 133°
2026-04-29 16:37 38.87473 88.18559 37049 ft 510 kts 132°
2026-04-29 16:38 38.84687 88.23459 37174 ft 508 kts 133°
2026-04-29 16:38 38.82577 88.27151 37115 ft 509 kts 133°
2026-04-29 16:38 38.80505 88.30790 37257 ft 506 kts 133°
2026-04-29 16:38 38.78388 88.34483 37242 ft 509 kts 132°
2026-04-29 16:39 38.74210 88.41788 37282 ft 510 kts 133°
2026-04-29 16:39 38.69995 88.49134 37367 ft 508 kts 132°
2026-04-29 16:40 38.65775 88.56475 37352 ft 508 kts 132°
2026-04-29 16:40 38.61560 88.63788 37315 ft 510 kts 133°
2026-04-29 16:41 38.57342 88.71099 37359 ft 507 kts 132°
2026-04-29 16:41 38.53317 88.78559 37351 ft 511 kts 131°
2026-04-29 16:42 38.49258 88.86069 37388 ft 509 kts 131°
2026-04-29 16:42 38.45211 88.93526 37398 ft 510 kts 131°
2026-04-29 16:43 38.41164 89.00968 37436 ft 510 kts 131°
2026-04-29 16:43 38.37087 89.08453 37410 ft 511 kts 131°
2026-04-29 16:44 38.33035 89.15870 37411 ft 510 kts 131°
2026-04-29 16:44 38.28936 89.23355 37436 ft 512 kts 131°
2026-04-29 16:45 38.24847 89.30814 37458 ft 510 kts 130°
2026-04-29 16:45 38.20767 89.38232 37454 ft 511 kts 130°
2026-04-29 16:46 38.16664 89.45674 37460 ft 509 kts 130°
2026-04-29 16:46 38.12586 89.53054 37437 ft 508 kts 131°
2026-04-29 16:47 38.08478 89.60472 37452 ft 509 kts 130°
2026-04-29 16:47 38.04402 89.67817 37445 ft 511 kts 131°
2026-04-29 16:48 38.00269 89.75246 37443 ft 511 kts 131°
2026-04-29 16:48 37.96178 89.82582 37430 ft 511 kts 131°
2026-04-29 16:49 37.92075 89.89925 37434 ft 510 kts 131°
2026-04-29 16:49 37.87970 89.97257 37449 ft 508 kts 131°
2026-04-29 16:50 37.83829 90.04623 37459 ft 509 kts 131°
2026-04-29 16:50 37.79707 90.11954 37436 ft 511 kts 131°
2026-04-29 16:51 37.75574 90.19284 37427 ft 511 kts 130°
2026-04-29 16:51 37.71524 90.26688 37422 ft 511 kts 130°
2026-04-29 16:52 37.67464 90.34088 37424 ft 512 kts 130°
2026-04-29 16:52 37.63406 90.41466 37439 ft 512 kts 130°
2026-04-29 16:53 37.59312 90.48891 37465 ft 513 kts 130°
2026-04-29 16:53 37.55240 90.56258 37452 ft 512 kts 130°
2026-04-29 16:54 37.51128 90.63686 37444 ft 514 kts 130°
2026-04-29 16:54 37.47016 90.71096 37443 ft 511 kts 131°
2026-04-29 16:55 37.42935 90.78432 37466 ft 511 kts 130°
2026-04-29 16:55 37.38821 90.85812 37477 ft 512 kts 131°
2026-04-29 16:56 37.34701 90.93187 37487 ft 512 kts 131°
2026-04-29 16:56 37.30564 91.00574 37499 ft 514 kts 131°
2026-04-29 16:57 37.26427 91.07947 37508 ft 511 kts 130°
2026-04-29 16:57 37.22306 91.15278 37516 ft 511 kts 130°
2026-04-29 16:58 37.18188 91.22585 37520 ft 511 kts 130°
2026-04-29 16:58 37.14034 91.29937 37509 ft 511 kts 130°
2026-04-29 16:59 37.09918 91.37204 37494 ft 510 kts 131°
2026-04-29 16:59 37.05785 91.44496 37504 ft 508 kts 130°
2026-04-29 17:00 37.01662 91.51746 37505 ft 508 kts 130°
2026-04-29 17:00 36.97551 91.58961 37496 ft 510 kts 130°
2026-04-29 17:01 36.93401 91.66229 37492 ft 509 kts 130°
2026-04-29 17:01 36.89267 91.73450 37498 ft 508 kts 130°
2026-04-29 17:02 36.85114 91.80697 37480 ft 511 kts 130°
2026-04-29 17:02 36.80938 91.87962 37512 ft 511 kts 131°
2026-04-29 17:03 36.76784 91.95170 37506 ft 511 kts 130°
2026-04-29 17:03 36.72591 92.02441 37467 ft 514 kts 130°
2026-04-29 17:04 36.68411 92.09666 37524 ft 513 kts 130°
2026-04-29 17:04 36.64212 92.16914 37492 ft 513 kts 130°
2026-04-29 17:05 36.60028 92.24115 37507 ft 514 kts 130°
2026-04-29 17:05 36.55810 92.31359 37536 ft 515 kts 130°
2026-04-29 17:06 36.51614 92.38554 37558 ft 515 kts 130°
2026-04-29 17:06 36.47387 92.45782 37555 ft 515 kts 130°
2026-04-29 17:07 36.43831 92.51855 37577 ft 518 kts 130°
2026-04-29 17:07 36.38874 92.60301 37551 ft 516 kts 130°
2026-04-29 17:08 36.34649 92.67484 37565 ft 515 kts 130°
2026-04-29 17:08 36.30386 92.74713 37589 ft 515 kts 130°
2026-04-29 17:09 36.26137 92.81907 37580 ft 518 kts 130°
2026-04-29 17:09 36.21870 92.89111 37621 ft 515 kts 130°
2026-04-29 17:10 36.17621 92.96278 37660 ft 516 kts 131°
2026-04-29 17:10 36.13330 93.03494 37679 ft 516 kts 130°
2026-04-29 17:11 36.09073 93.10637 37664 ft 518 kts 130°
2026-04-29 17:11 36.04760 93.17863 37683 ft 517 kts 131°
2026-04-29 17:12 36.00465 93.25044 37671 ft 518 kts 131°
2026-04-29 17:12 35.97668 93.29878 37684 ft 519 kts 129°
2026-04-29 17:13 35.92075 93.39615 37685 ft 519 kts 130°
2026-04-29 17:13 35.87910 93.46840 37685 ft 517 kts 129°
2026-04-29 17:14 35.83690 93.54146 37686 ft 520 kts 129°